Location: Elmsmere
(40.9284°N, 73.8207°W)
Time: 05:28:31
(UTC+00:00)

NOAA 11 - Pass Details

Date: 29 October 2020
Orbit: 833 x 850 km, 98.4° (Epoch: 27 November)

Event Time Altitude Azimuth Distance (km) Brightness Sun altitude
Rises 22:22:32 0° 153° (SSE) 3,381 7.2 -6.0°
Reaches altitude 10° 22:24:56 10° 149° (SSE) 2,448 6.4 -6.4°
Maximum altitude 22:30:13 56° 72° (ENE) 993 4.3 -7.4°
Drops below altitude 10° 22:35:31 10° 356° (N) 2,455 6.6 -8.4°
Sets 22:37:55 0° 352° (N) 3,391 7.3 -8.8°
